Location: Ermatingen
(47.6706°N, 9.0857°E)
Time: 05:51:07
(UTC+00:00)

Cosmos 1833 Rocket - Pass Details

Date: 18 September 2020
Orbit: 831 x 841 km, 71.0° (Epoch: 22 October)

Event Time Altitude Azimuth Distance (km) Brightness Sun altitude
Rises 19:59:46 0° 336° (NNW) 3,407 6.7 -24.8°
Reaches altitude 10° 20:02:23 10° 344° (NNW) 2,469 5.8 -25.1°
Enters shadow 20:07:38 40° 51° (NE) 1,230 3.4 -25.9°
